Regional Weather Roundup
Issued by NWS

Home | Current Version | Previous Version | Graphics & Text | Print | Product List | Glossary On
Versions: 1 2 3 4 5 6 7 8 9 10 11 12 13 14 15 16 17 18 19 20 21 22 23 24 25 26 27 28 29 30 31 32 33 34 35 36 37 38 39 40 41 42 43 44 45 46 47 48 49 50
000
ASUS43 KLOT 210912
RWRIL

ILLINOIS REGIONAL WEATHER ROUNDUP
NATIONAL WEATHER SERVICE CHICAGO/ROMEOVILLE IL
400 AM CDT TUE APR 21 2015

NOTE: "FAIR" INDICATES FEW OR NO CLOUDS BELOW 12,000 FEET WITH NO
SIGNIFICANT WEATHER AND/OR OBSTRUCTIONS TO VISIBILITY.

* THESE STATIONS ARE NOT UNDER NWS QUALITY CONTROL. THEY ALSO MAY NOT
  REPORT WEATHER SUCH AS PRECIPITATION OR FOG.

ILZ001-002-007-009-015-016-024-211000-
NORTHWEST ILLINOIS

CITY           SKY/WX    TMP DP  RH WIND       PRES   REMARKS
MOLINE         CLEAR     39  30  70 SW10      29.67S WCI  32
STERLING*      CLEAR     39  30  70 W15       29.64S WCI  31
SAVANNA*       CLEAR     40  31  68 W14       29.63S
$$

ILZ003-004-008-010-011-017-018-211000-
NORTH CENTRAL ILLINOIS

CITY           SKY/WX    TMP DP  RH WIND       PRES   REMARKS
ROCKFORD       CLEAR     39  29  67 SW12      29.60F WCI  32
FREEPORT*      CLEAR     37  29  75 W12       29.61R WCI  29
ROCHELLE*      CLEAR     35  32  88 SW13      29.62S WCI  26
DE KALB*       CLEAR     36  30  78 W14       29.60S WCI  27
PERU*          PTCLDY    42  30  63 W16G25    29.66S
$$

ILZ005-006-012>014-019>023-211000-
NORTHEAST ILLINOIS

CITY           SKY/WX    TMP DP  RH WIND       PRES   REMARKS
CHICAGO-OHARE  CLEAR     40  31  70 W14       29.59S
CHICAGO-MIDWAY CLEAR     43  32  65 SW14      29.61S
AURORA         FAIR      39  30  70 SW12      29.62R WCI  32
LANSING*       PTCLDY    41  31  67 SW14      29.63S
JOLIET*        CLEAR     42  32  67 W9        29.64S
WAUKEGAN       CLEAR     38  31  76 SW8       29.55F WCI  32
DUPAGE AIRPORT CLEAR     38  31  76 SW13      29.59S WCI  30
KANKAKEE*      CLEAR     37  33  86 SW10      29.67S WCI  29
WHEELING       CLEAR     40  30  67 SW13G21   29.59S
MORRIS*        CLEAR     40  32  74 SW12      29.63R
ROMEOVILLE*    CLEAR     40  30  68 W15       29.62S
NORTHERLY ISL    N/A     43  31  63 W10         N/A
$$

LMZ740>746-211000-
SOUTHERN LAKE MICHIGAN

STATION/POSITION SKY/WX   TEMP    WIND        PRES    VSBY  WAVE
                          AIR SEA DIR/SP/G                  HT/PER
                          (F)     (DEG/KT/KT) (MB)    (MI)  (FT/S)
HARRISON CRIB              44     250/ 18/ 23   N/A
BURNHAM HARBOR             43     210/ 12       N/A
CALUMET HARBOR             44     230/ 11/ 16   N/A
BURNS HARBOR               45     220/ 13/ 25 1003.7F
MICHIGAN CITY              44     200/ 18/ 24   N/A
MICHIGAN CITY 6N           44 45  250/ 17/ 21   N/A           4/ 4
$$

ILZ025>027-034>036-040-047-049-050-058-095>099-211000-
WEST-CENTRAL ILLINOIS

CITY           SKY/WX    TMP DP  RH WIND       PRES   REMARKS
QUINCY         CLEAR     43  27  53 W9        29.76S
GALESBURG*     CLEAR     34  28  79 SW7       29.71R WCI  27
MACOMB*        CLEAR     38  30  72 SW10      29.75R WCI  31
JACKSONVILLE*  CLEAR     43  32  65 SW10      29.77R
PITTSFIELD*    CLEAR     46  30  55 SW12      29.78S
$$

ILZ028>032-037-038-041>044-048-051>054-059>061-211000-
CENTRAL ILLINOIS

CITY           SKY/WX    TMP DP  RH WIND       PRES   REMARKS
PONTIAC        CLEAR     39  34  81 SW9       29.69S WCI  33
BLOOMINGTON    CLEAR     40  32  73 W10       29.72S
DECATUR        CLEAR     42  32  67 SW12      29.75R
PEORIA         CLEAR     42  29  59 W8        29.71R
LACON*         CLEAR     38  31  73 SW6       29.69R WCI  34
LINCOLN*       CLEAR     41  32  69 SW3       29.73R
SPRINGFIELD    CLEAR     42  31  64 SW9       29.76R
TAYLORVILLE    CLEAR     43  32  65 SW15      29.77R
$$

ILZ033-039-045-046-055>057-062-063-211000-
EAST-CENTRAL ILLINOIS

CITY           SKY/WX    TMP DP  RH WIND       PRES   REMARKS
CHAMPAIGN      CLEAR     40  33  76 SW14      29.73R
DANVILLE*      CLEAR     42  33  71 SW15      29.69S
RANTOUL*       CLEAR     41  34  75 W9        29.71S
MATTOON        CLEAR     43  32  65 SW9       29.76R
PARIS*         CLEAR     43  35  74 SW16      29.75S
$$

ILZ079-100>102-211000-
SOUTHWEST ILLINOIS

CITY           SKY/WX    TMP DP  RH WIND       PRES   REMARKS
ALTON          CLEAR     43  28  56 SW8       29.82R
BELLEVILLE     CLEAR     41  33  73 SW6       29.83R
CAHOKIA*       CLEAR     46  31  55 VRB6      29.83S
SPARTA*        CLEAR     45  31  58 SW8       29.87R
$$

ILZ064>066-069>071-074>076-080>082-084>086-088>090-092>094-211000-
SOUTH-CENTRAL ILLINOIS

CITY           SKY/WX    TMP DP  RH WIND       PRES   REMARKS
CARBONDALE     CLEAR     45  32  60 SW10      29.88R
CAIRO*         CLEAR     49  36  61 SW5       29.92R
EFFINGHAM*     CLEAR     44  31  59 SW9       29.81S
MARION         CLEAR     46  34  61 SW6       29.89R
MT. VERNON     CLEAR     45  32  61 SW12      29.85R
CENTRALIA*     CLEAR     44  32  61 SW13      29.83S
SALEM*         CLEAR     48  32  53 SW12      29.83R
METROPOLIS*    CLEAR     47  38  73 SW7       29.90S
$$

ILZ067-068-072-073-078-083-087-091-211000-
SOUTHEAST ILLINOIS

CITY           SKY/WX    TMP DP  RH WIND       PRES   REMARKS
LAWRENCEVILLE  CLEAR     44  35  70 SW13      29.82R
FLORA*         CLEAR     44  33  66 SW9       29.83R
FAIRFIELD*     CLEAR     46  35  66 SW7       29.84R
HARRISBURG*    CLEAR     45  35  69 CALM      29.89S
ROBINSON*      CLEAR     44  34  68 SW12      29.81R
CARMI*         CLEAR     46  32  59 SW9       29.86R
$$

ABBREVIATIONS USED IN REMARKS
   TC - TEMPERATURE IN CELSIUS
  WCI - WIND CHILL INDEX
   HX - HEAT INDEX
  VSB - VISIBILITY
$$



USA.gov is the U.S. government's official web portal to all federal, state and local government web resources and services.